Regional Weather Roundup
Issued by NWS Upton, NY

Current Version | Previous Version | Text Only | Print | Product List | Glossary On
Versions: 1 2 3 4 5 6 7 8 9 10 11 12 13 14 15 16 17 18 19 20 21 22 23 24 25 26 27 28 29 30 31 32 33 34 35 36 37 38 39 40 41 42 43 44 45 46 47 48 49 50
000 ASUS41 KOKX 281705 RWROKX REGIONAL WEATHER ROUNDUP NATIONAL WEATHER SERVICE NEW YORK NY 1200 PM EST SAT FEB 28 2015 NOTE: "FAIR" INDICATES FEW OR NO CLOUDS BELOW 12,000 FEET WITH NO SIGNIFICANT WEATHER AND/OR OBSTRUCTIONS TO VISIBILITY. NYZ071-072-176-178-NJZ106-104-281800- NEW YORK CITY METRO AREA CITY SKY/WX TMP DP RH WIND PRES REMARKS CENTRAL PARK SUNNY 23 -2 33 NW5 30.83S WCI 17 LAGUARDIA APRT MOSUNNY 23 0 36 N5 30.82S WCI 17 KENNEDY INTL PTSUNNY 25 -1 32 NW3 30.83S NEWARK/LIBERTY MOSUNNY 24 2 38 W5 30.83S WCI 18 BRNX BOT. GARD N/A N/A N/A N/A W13 30.80F TETERBORO SUNNY 23 -1 35 W6 30.82S WCI 16 $$ NYZ177-179-078>081-281800- LONG ISLAND NEW YORK CITY SKY/WX TMP DP RH WIND PRES REMARKS FARMINGDALE SUNNY 23 2 40 NW8 30.81S WCI 14 ISLIP PTSUNNY 22 6 50 N8 30.78S WCI 12 SHIRLEY SUNNY 23 6 48 NW8 30.80S WCI 14 WESTHAMPTON SUNNY 22 5 48 NW9 30.80S WCI 12 MONTAUK POINT N/A 23 7 50 VRB5 30.78F WCI 17 $$ NYZ052-065-067-281800- HUDSON VALLEY CITY SKY/WX TMP DP RH WIND PRES REMARKS WHITE PLAINS SUNNY 20 1 43 VRB6 30.76F WCI 12 NEWBURGH SUNNY 18 1 49 CALM 30.79S MONTGOMERY SUNNY 19 -1 41 CALM 30.77F POUGHKEEPSIE SUNNY 21 0 39 CALM 30.80F ALBANY SUNNY 20 3 48 W3 30.79F $$ NJZ001-105-106-008-010-013-015-019>022-104-281800- NEW JERSEY CITY SKY/WX TMP DP RH WIND PRES REMARKS NEWARK/LIBERTY MOSUNNY 24 2 38 W5 30.83S WCI 18 TETERBORO SUNNY 23 -1 35 W6 30.82S WCI 16 CALDWELL SUNNY 21 0 39 E5 30.82S WCI 15 MORRISTOWN SUNNY 21 0 39 CALM 30.82F SOMERVILLE SUNNY 24 -1 33 N5 30.81S WCI 18 SUSSEX SUNNY 20 1 43 CALM 30.78S ANDOVER N/A 22 1 40 VRB5 30.77S WCI 16 TRENTON SUNNY 23 -1 35 NW6 30.81F WCI 16 MILLVILLE PTSUNNY 25 1 35 NW6 30.83F WCI 18 ATLANTIC CITY PTSUNNY 26 0 32 NW6 30.83S WCI 19 WRIGHTSTOWN SUNNY 24 1 36 NW5 30.80F WCI 18 TOMS RIVER MOSUNNY 25 0 33 NW7 30.82F WCI 17 BELMAR SUNNY 25 0 33 NW9 30.81S WCI 15 $$ PAZ047>061-062-071-281800- EASTERN PENNSYLVANIA CITY SKY/WX TMP DP RH WIND PRES REMARKS PHILADELPHIA MOSUNNY 25 -2 31 NW5 30.85F WCI 19 ALLENTOWN FLURRIES 20 -3 36 SW3 30.81F SCRANTON SUNNY 18 -1 43 CALM 30.76S $$ CTZ002-004>006-009-010-012-RIZ004-006-007-MAZ004-011-015-281800- SOUTHERN NEW ENGLAND IN CT CITY SKY/WX TMP DP RH WIND PRES REMARKS BRADLEY INTL MOSUNNY 23 1 38 CALM 30.75F HARTFORD SUNNY 21 1 41 SE3 30.78F DANBURY SUNNY 21 -1 38 VRB7 30.77F WCI 12 WTRBRY/OXFORD SUNNY 21 0 39 N6 30.74S WCI 14 BRIDGEPORT SUNNY 24 4 42 NW8 30.79F WCI 15 MERIDEN SUNNY 24 0 35 NW3 30.77F NEW HAVEN MOSUNNY 23 2 40 W6 30.78F WCI 16 CHESTER FAIR 23 1 39 N7 30.74F WCI 15 GROTON SUNNY 21 6 52 S6 30.76F WCI 13 WILLIMANTIC SUNNY 23 0 36 S5 30.75F WCI 17 IN RI CITY SKY/WX TMP DP RH WIND PRES REMARKS PROVIDENCE MOSUNNY 24 0 35 SE3 30.75S BLOCK ISLAND SUNNY 25 7 46 NW7 30.75F WCI 17 WESTERLY SUNNY 24 1 36 SW6 30.76F WCI 17 IN MA CITY SKY/WX TMP DP RH WIND PRES REMARKS BOSTON SUNNY 25 1 35 NW5 30.74F WCI 19 WORCESTER SUNNY 21 -3 35 W7 30.65F WCI 12 WESTFIELD SUNNY 23 -2 33 CALM 30.74F PROVINCETOWN SUNNY 23 9 54 W9 30.74F WCI 13 NANTUCKET SUNNY 26 12 55 NW5 30.74S WCI 20 $$ ANZ330-335-338-340-345-350-353-355-281800- COASTAL MARINE OBSERVATIONS STATION/POSITION TIME SKY/WX TEMP WIND PRES VSBY WAVE AIR SEA DIR/SP/G HT/PER (UTC) (F) (DEG/KT/KT) (MB) (MI) (FT/S) NY HARB ENTRANCE 1700 21 38 320/ 6/ 8 1043.8 2/10 4S FIRE IS NOT AVBL 20S FIRE ISLAND 1600 36 1044.0 3/10 23SW MTP 1700 N/A 3/ 9 HUDSON CANYON NOT AVBL EXECUTION ROCKS NOT AVBL WESTERN LI SOUND NOT AVBL CENTRAL LI SOUND NOT AVBL EASTERN LI SOUND NOT AVBL ROBBINS REEF 1700 19 300/ 3/ 5 1042.8 $$ >>>>>>>>>>>>>>>>>>>>>>>>>>>> KEY <<<<<<<<<<<<<<<<<<<<<<<<<<< > < > SKY/WX - SKY CONDITION/PRESENT WEATHER < > TMP - TEMPERATURE IN FAHRENHEIT < > DP - DEWPOINT IN FAHRENHEIT < > RH - RELATIVE HUMIDITY IN PERCENT < > WIND - DIRECTION AND SPEED IN MPH < > PRES - MEAN SEA LEVEL PRESSURE IN INCHES OF HG < > WCI - WIND CHILL INDEX < > VSB - VISIBILITY IN MILES < > HX - HEAT INDEX < > TC - TEMPERATURE IN CELSIUS < > VRB - VARIABLE WIND DIRECTION < > < >>>>>>>>>>>>>>>>>>>>>>>>>>>> KEY <<<<<<<<<<<<<<<<<<<<<<<<<<<

USA.gov is the U.S. government's official web portal to all federal, state and local government web resources and services.